owner,sensor,date,latitude,longitude,vertical_datum,wind_speed,wind_to_direction,wind_speed_of_gust,qcFlag 
DISL,ioos:station:DISL:DISL:1,2019-09-01T00:10:00Z,30.2513,-88.0778,9.68,4.69,103.4,-9999.0,'11111222,11111222,99999222' 
DISL,ioos:station:DISL:DISL:1,2019-09-01T01:10:00Z,30.2513,-88.0778,9.68,4.67,91.7,-9999.0,'11111222,11111222,99999222' 
DISL,ioos:station:DISL:DISL:1,2019-09-01T02:10:00Z,30.2513,-88.0778,9.68,5.04,73.71,-9999.0,'11111222,11111222,99999222' 
DISL,ioos:station:DISL:DISL:1,2019-09-01T03:10:00Z,30.2513,-88.0778,9.68,5.02,70.71,-9999.0,'11111222,11111222,99999222' 
DISL,ioos:station:DISL:DISL:1,2019-09-01T04:10:00Z,30.2513,-88.0778,9.68,3.86,58.67,-9999.0,'11111222,11111222,99999222' 
DISL,ioos:station:DISL:DISL:1,2019-09-01T05:10:00Z,30.2513,-88.0778,9.68,4.81,51.14,-9999.0,'11111222,11111222,99999222' 
DISL,ioos:station:DISL:DISL:1,2019-09-01T06:10:00Z,30.2513,-88.0778,9.68,6.97,51.15,-9999.0,'11111222,11111222,99999222' 
DISL,ioos:station:DISL:DISL:1,2019-09-01T07:10:00Z,30.2513,-88.0778,9.68,5.09,72.37,-9999.0,'11111222,11111222,99999222' 
DISL,ioos:station:DISL:DISL:1,2019-09-01T08:10:00Z,30.2513,-88.0778,9.68,5.19,96.1,-9999.0,'11111222,11111222,99999222' 
DISL,ioos:station:DISL:DISL:1,2019-09-01T09:10:00Z,30.2513,-88.0778,9.68,5.19,56.6,-9999.0,'11111222,11111222,99999222' 
DISL,ioos:station:DISL:DISL:1,2019-09-01T10:10:00Z,30.2513,-88.0778,9.68,6.4,59.21,-9999.0,'11111222,11111222,99999222' 
DISL,ioos:station:DISL:DISL:1,2019-09-01T11:10:00Z,30.2513,-88.0778,9.68,6.14,68.29,-9999.0,'11111222,11111222,99999222' 
DISL,ioos:station:DISL:DISL:1,2019-09-01T12:10:00Z,30.2513,-88.0778,9.68,6.07,64.45,-9999.0,'11111222,11111222,99999222' 
DISL,ioos:station:DISL:DISL:1,2019-09-01T13:10:00Z,30.2513,-88.0778,9.68,6.4,63.96,-9999.0,'11111222,11111222,99999222' 
DISL,ioos:station:DISL:DISL:1,2019-09-01T14:10:00Z,30.2513,-88.0778,9.68,5.91,58.55,-9999.0,'11111222,11111222,99999222' 
DISL,ioos:station:DISL:DISL:1,2019-09-01T15:10:00Z,30.2513,-88.0778,9.68,5.76,66.47,-9999.0,'11111222,11111222,99999222' 
DISL,ioos:station:DISL:DISL:1,2019-09-01T16:10:00Z,30.2513,-88.0778,9.68,4.57,44.57,-9999.0,'11111222,11111222,99999222' 
DISL,ioos:station:DISL:DISL:1,2019-09-01T17:10:00Z,30.2513,-88.0778,9.68,3.64,49.12,-9999.0,'11111222,11111222,99999222' 
DISL,ioos:station:DISL:DISL:1,2019-09-01T18:10:00Z,30.2513,-88.0778,9.68,2.91,40.53,-9999.0,'11111222,11111222,99999222' 
DISL,ioos:station:DISL:DISL:1,2019-09-01T19:10:00Z,30.2513,-88.0778,9.68,2.01,26.58,-9999.0,'11111222,11111222,99999222' 
DISL,ioos:station:DISL:DISL:1,2019-09-01T20:10:00Z,30.2513,-88.0778,9.68,1.26,83.8,-9999.0,'11111222,11111222,99999222' 
DISL,ioos:station:DISL:DISL:1,2019-09-01T21:10:00Z,30.2513,-88.0778,9.68,0.17,67.33,-9999.0,'11111222,11111222,99999222' 
DISL,ioos:station:DISL:DISL:1,2019-09-01T22:10:00Z,30.2513,-88.0778,9.68,1.71,130.4,-9999.0,'11111222,11111222,99999222' 
DISL,ioos:station:DISL:DISL:1,2019-09-01T23:10:00Z,30.2513,-88.0778,9.68,3.57,44.21,-9999.0,'11111222,11111222,99999222' 
DISL,ioos:station:DISL:DISL:1,2019-09-02T00:10:00Z,30.2513,-88.0778,9.68,5.46,22.56,-9999.0,'11111222,11111222,99999222' 
DISL,ioos:station:DISL:DISL:1,2019-09-02T01:10:00Z,30.2513,-88.0778,9.68,2.32,59.19,-9999.0,'11111222,11111222,99999222' 
DISL,ioos:station:DISL:DISL:1,2019-09-02T02:10:00Z,30.2513,-88.0778,9.68,3.76,40.79,-9999.0,'11111222,11111222,99999222' 
DISL,ioos:station:DISL:DISL:1,2019-09-02T03:10:00Z,30.2513,-88.0778,9.68,6.38,35.36,-9999.0,'11111222,11111222,99999222' 
DISL,ioos:station:DISL:DISL:1,2019-09-02T04:10:00Z,30.2513,-88.0778,9.68,6.65,54.15,-9999.0,'11111222,11111222,99999222' 
DISL,ioos:station:DISL:DISL:1,2019-09-02T05:10:00Z,30.2513,-88.0778,9.68,6.65,61.29,-9999.0,'11111222,11111222,99999222' 
DISL,ioos:station:DISL:DISL:1,2019-09-02T06:10:00Z,30.2513,-88.0778,9.68,6.43,54.87,-9999.0,'11111222,11111222,99999222' 
DISL,ioos:station:DISL:DISL:1,2019-09-02T07:10:00Z,30.2513,-88.0778,9.68,7.14,54.67,-9999.0,'11111222,11111222,99999222' 
DISL,ioos:station:DISL:DISL:1,2019-09-02T08:10:00Z,30.2513,-88.0778,9.68,6.55,75.04,-9999.0,'11111222,11111222,99999222' 
DISL,ioos:station:DISL:DISL:1,2019-09-02T09:10:00Z,30.2513,-88.0778,9.68,6.16,78.06,-9999.0,'11111222,11111222,99999222' 
DISL,ioos:station:DISL:DISL:1,2019-09-02T10:10:00Z,30.2513,-88.0778,9.68,5.34,57.27,-9999.0,'11111222,11111222,99999222' 
DISL,ioos:station:DISL:DISL:1,2019-09-02T11:10:00Z,30.2513,-88.0778,9.68,6.03,45.23,-9999.0,'11111222,11111222,99999222' 
DISL,ioos:station:DISL:DISL:1,2019-09-02T12:10:00Z,30.2513,-88.0778,9.68,5.75,52.07,-9999.0,'11111222,11111222,99999222' 
DISL,ioos:station:DISL:DISL:1,2019-09-02T13:10:00Z,30.2513,-88.0778,9.68,5.3,56.61,-9999.0,'11111222,11111222,99999222' 
DISL,ioos:station:DISL:DISL:1,2019-09-02T16:10:00Z,30.2513,-88.0778,9.68,3.78,40.53,-9999.0,'11111222,11111222,99999222' 
DISL,ioos:station:DISL:DISL:1,2019-09-02T17:10:00Z,30.2513,-88.0778,9.68,2.57,18.39,-9999.0,'11111222,11111222,99999222' 
DISL,ioos:station:DISL:DISL:1,2019-09-02T18:10:00Z,30.2513,-88.0778,9.68,3.5,0.49,-9999.0,'11111222,11111222,99999222' 
DISL,ioos:station:DISL:DISL:1,2019-09-02T19:10:00Z,30.2513,-88.0778,9.68,3.47,8.26,-9999.0,'11111222,11111222,99999222' 
DISL,ioos:station:DISL:DISL:1,2019-09-02T20:10:00Z,30.2513,-88.0778,9.68,2.89,117.5,-9999.0,'11111222,11111222,99999222' 
DISL,ioos:station:DISL:DISL:1,2019-09-02T21:10:00Z,30.2513,-88.0778,9.68,2.21,150.3,-9999.0,'11111222,11111222,99999222' 
DISL,ioos:station:DISL:DISL:1,2019-09-02T22:10:00Z,30.2513,-88.0778,9.68,2.01,137.5,-9999.0,'11111222,11111222,99999222' 
DISL,ioos:station:DISL:DISL:1,2019-09-02T23:10:00Z,30.2513,-88.0778,9.68,0.47,246.7,-9999.0,'11111222,11111222,99999222' 
DISL,ioos:station:DISL:DISL:1,2019-09-03T00:10:00Z,30.2513,-88.0778,9.68,7.5,17.84,-9999.0,'11111222,11111222,99999222' 
DISL,ioos:station:DISL:DISL:1,2019-09-03T01:10:00Z,30.2513,-88.0778,9.68,6.65,31.8,-9999.0,'11111222,11111222,99999222' 
DISL,ioos:station:DISL:DISL:1,2019-09-03T02:10:00Z,30.2513,-88.0778,9.68,5.74,32.86,-9999.0,'11111222,11111222,99999222' 
DISL,ioos:station:DISL:DISL:1,2019-09-03T03:10:00Z,30.2513,-88.0778,9.68,5.93,37.34,-9999.0,'11111222,11111222,99999222' 
DISL,ioos:station:DISL:DISL:1,2019-09-03T04:10:00Z,30.2513,-88.0778,9.68,6.1,37.21,-9999.0,'11111222,11111222,99999222' 
DISL,ioos:station:DISL:DISL:1,2019-09-03T05:10:00Z,30.2513,-88.0778,9.68,5.92,44.58,-9999.0,'11111222,11111222,99999222' 
DISL,ioos:station:DISL:DISL:1,2019-09-03T06:10:00Z,30.2513,-88.0778,9.68,6.31,57.72,-9999.0,'11111222,11111222,99999222' 
DISL,ioos:station:DISL:DISL:1,2019-09-03T07:10:00Z,30.2513,-88.0778,9.68,5.86,57.57,-9999.0,'11111222,11111222,99999222' 
DISL,ioos:station:DISL:DISL:1,2019-09-03T08:10:00Z,30.2513,-88.0778,9.68,5.08,64.38,-9999.0,'11111222,11111222,99999222' 
DISL,ioos:station:DISL:DISL:1,2019-09-03T09:10:00Z,30.2513,-88.0778,9.68,5.51,58.17,-9999.0,'11111222,11111222,99999222' 
DISL,ioos:station:DISL:DISL:1,2019-09-03T10:10:00Z,30.2513,-88.0778,9.68,6.32,60.1,-9999.0,'11111222,11111222,99999222' 
DISL,ioos:station:DISL:DISL:1,2019-09-03T11:10:00Z,30.2513,-88.0778,9.68,6.18,68.36,-9999.0,'11111222,11111222,99999222' 
DISL,ioos:station:DISL:DISL:1,2019-09-03T12:10:00Z,30.2513,-88.0778,9.68,5.45,55.32,-9999.0,'11111222,11111222,99999222' 
DISL,ioos:station:DISL:DISL:1,2019-09-03T13:10:00Z,30.2513,-88.0778,9.68,5.03,56.25,-9999.0,'11111222,11111222,99999222' 
DISL,ioos:station:DISL:DISL:1,2019-09-03T14:10:00Z,30.2513,-88.0778,9.68,5.07,70.93,-9999.0,'11111222,11111222,99999222' 
DISL,ioos:station:DISL:DISL:1,2019-09-03T15:10:00Z,30.2513,-88.0778,9.68,4.18,46.4,-9999.0,'11111222,11111222,99999222' 
DISL,ioos:station:DISL:DISL:1,2019-09-03T16:10:00Z,30.2513,-88.0778,9.68,4.11,44.77,-9999.0,'11111222,11111222,99999222' 
DISL,ioos:station:DISL:DISL:1,2019-09-03T17:10:00Z,30.2513,-88.0778,9.68,2.93,6.547,-9999.0,'11111222,11111222,99999222' 
DISL,ioos:station:DISL:DISL:1,2019-09-03T18:10:00Z,30.2513,-88.0778,9.68,3.37,353.0,-9999.0,'11111222,11111222,99999222' 
DISL,ioos:station:DISL:DISL:1,2019-09-03T19:10:00Z,30.2513,-88.0778,9.68,3.17,353.1,-9999.0,'11111222,11111222,99999222' 
DISL,ioos:station:DISL:DISL:1,2019-09-03T20:10:00Z,30.2513,-88.0778,9.68,3.7,345.7,-9999.0,'11111222,11111222,99999222' 
DISL,ioos:station:DISL:DISL:1,2019-09-03T21:10:00Z,30.2513,-88.0778,9.68,3.93,353.7,-9999.0,'11111222,11111222,99999222' 
DISL,ioos:station:DISL:DISL:1,2019-09-03T22:10:00Z,30.2513,-88.0778,9.68,4.09,358.3,-9999.0,'11111222,11111222,99999222' 
DISL,ioos:station:DISL:DISL:1,2019-09-03T23:10:00Z,30.2513,-88.0778,9.68,2.63,39.78,-9999.0,'11111222,11111222,99999222' 
DISL,ioos:station:DISL:DISL:1,2019-09-04T00:10:00Z,30.2513,-88.0778,9.68,2.01,198.8,-9999.0,'11111222,11111222,99999222' 
DISL,ioos:station:DISL:DISL:1,2019-09-04T01:10:00Z,30.2513,-88.0778,9.68,2.01,221.9,-9999.0,'11111222,11111222,99999222' 
DISL,ioos:station:DISL:DISL:1,2019-09-04T02:10:00Z,30.2513,-88.0778,9.68,1.78,237.8,-9999.0,'11111222,11111222,99999222' 
DISL,ioos:station:DISL:DISL:1,2019-09-04T03:10:00Z,30.2513,-88.0778,9.68,1.7,18.24,-9999.0,'11111222,11111222,99999222' 
DISL,ioos:station:DISL:DISL:1,2019-09-04T04:10:00Z,30.2513,-88.0778,9.68,3.72,20.19,-9999.0,'11111222,11111222,99999222' 
DISL,ioos:station:DISL:DISL:1,2019-09-04T05:10:00Z,30.2513,-88.0778,9.68,3.07,44.52,-9999.0,'11111222,11111222,99999222' 
DISL,ioos:station:DISL:DISL:1,2019-09-04T06:10:00Z,30.2513,-88.0778,9.68,3.71,37.63,-9999.0,'11111222,11111222,99999222' 
DISL,ioos:station:DISL:DISL:1,2019-09-04T07:10:00Z,30.2513,-88.0778,9.68,5.02,14.87,-9999.0,'11111222,11111222,99999222' 
DISL,ioos:station:DISL:DISL:1,2019-09-04T08:10:00Z,30.2513,-88.0778,9.68,5.04,15.38,-9999.0,'11111222,11111222,99999222' 
DISL,ioos:station:DISL:DISL:1,2019-09-04T09:10:00Z,30.2513,-88.0778,9.68,4.42,8.38,-9999.0,'11111222,11111222,99999222' 
DISL,ioos:station:DISL:DISL:1,2019-09-04T10:10:00Z,30.2513,-88.0778,9.68,4.62,8.37,-9999.0,'11111222,11111222,99999222' 
DISL,ioos:station:DISL:DISL:1,2019-09-04T11:10:00Z,30.2513,-88.0778,9.68,4.46,16.2,-9999.0,'11111222,11111222,99999222' 
DISL,ioos:station:DISL:DISL:1,2019-09-04T12:10:00Z,30.2513,-88.0778,9.68,4.68,23.04,-9999.0,'11111222,11111222,99999222' 
DISL,ioos:station:DISL:DISL:1,2019-09-04T13:10:00Z,30.2513,-88.0778,9.68,3.69,26.83,-9999.0,'11111222,11111222,99999222' 
DISL,ioos:station:DISL:DISL:1,2019-09-04T14:10:00Z,30.2513,-88.0778,9.68,3.78,17.78,-9999.0,'11111222,11111222,99999222' 
DISL,ioos:station:DISL:DISL:1,2019-09-04T15:10:00Z,30.2513,-88.0778,9.68,4.51,6.904,-9999.0,'11111222,11111222,99999222' 
DISL,ioos:station:DISL:DISL:1,2019-09-04T16:10:00Z,30.2513,-88.0778,9.68,3.11,6.765,-9999.0,'11111222,11111222,99999222' 
DISL,ioos:station:DISL:DISL:1,2019-09-04T17:10:00Z,30.2513,-88.0778,9.68,2.64,358.4,-9999.0,'11111222,11111222,99999222' 
DISL,ioos:station:DISL:DISL:1,2019-09-04T18:10:00Z,30.2513,-88.0778,9.68,2.59,346.3,-9999.0,'11111222,11111222,99999222' 
DISL,ioos:station:DISL:DISL:1,2019-09-04T19:10:00Z,30.2513,-88.0778,9.68,3.12,1.75,-9999.0,'11111222,11111222,99999222' 
DISL,ioos:station:DISL:DISL:1,2019-09-04T20:10:00Z,30.2513,-88.0778,9.68,2.68,3.743,-9999.0,'11111222,11111222,99999222' 
DISL,ioos:station:DISL:DISL:1,2019-09-04T21:10:00Z,30.2513,-88.0778,9.68,2.55,305.6,-9999.0,'11111222,11111222,99999222' 
DISL,ioos:station:DISL:DISL:1,2019-09-04T22:10:00Z,30.2513,-88.0778,9.68,2.48,298.7,-9999.0,'11111222,11111222,99999222' 
DISL,ioos:station:DISL:DISL:1,2019-09-04T23:10:00Z,30.2513,-88.0778,9.68,2.15,257.2,-9999.0,'11111222,11111222,99999222' 
DISL,ioos:station:DISL:DISL:1,2019-09-04T23:40:00Z,30.2513,-88.0778,9.68,2.09,263.7,-9999.0,'11111222,11111222,99999222' 
DISL,ioos:station:DISL:DISL:1,2019-09-05T01:10:00Z,30.2513,-88.0778,9.68,2.05,256.8,-9999.0,'11111222,11111222,99999222' 
DISL,ioos:station:DISL:DISL:1,2019-09-05T01:40:00Z,30.2513,-88.0778,9.68,2.34,255.4,-9999.0,'11111222,11111222,99999222' 
DISL,ioos:station:DISL:DISL:1,2019-09-05T03:10:00Z,30.2513,-88.0778,9.68,1.98,262.2,-9999.0,'11111222,11111222,99999222' 
DISL,ioos:station:DISL:DISL:1,2019-09-05T03:40:00Z,30.2513,-88.0778,9.68,2.54,271.8,-9999.0,'11111222,11111222,99999222' 
DISL,ioos:station:DISL:DISL:1,2019-09-05T04:40:00Z,30.2513,-88.0778,9.68,3.78,325.1,-9999.0,'11111222,11111222,99999222' 
DISL,ioos:station:DISL:DISL:1,2019-09-05T05:40:00Z,30.2513,-88.0778,9.68,4.42,332.4,-9999.0,'11111222,11111222,99999222' 
DISL,ioos:station:DISL:DISL:1,2019-09-05T06:40:00Z,30.2513,-88.0778,9.68,4.95,337.3,-9999.0,'11111222,11111222,99999222' 
DISL,ioos:station:DISL:DISL:1,2019-09-05T08:10:00Z,30.2513,-88.0778,9.68,5.98,346.1,-9999.0,'11111222,11111222,99999222' 
DISL,ioos:station:DISL:DISL:1,2019-09-05T09:10:00Z,30.2513,-88.0778,9.68,5.28,356.4,-9999.0,'11111222,11111222,99999222' 
DISL,ioos:station:DISL:DISL:1,2019-09-05T10:10:00Z,30.2513,-88.0778,9.68,4.87,354.0,-9999.0,'11111222,11111222,99999222' 
DISL,ioos:station:DISL:DISL:1,2019-09-05T11:10:00Z,30.2513,-88.0778,9.68,4.11,352.4,-9999.0,'11111222,11111222,99999222' 
DISL,ioos:station:DISL:DISL:1,2019-09-05T12:10:00Z,30.2513,-88.0778,9.68,4.89,342.7,-9999.0,'11111222,11111222,99999222' 
DISL,ioos:station:DISL:DISL:1,2019-09-05T13:10:00Z,30.2513,-88.0778,9.68,4.49,338.0,-9999.0,'11111222,11111222,99999222' 
DISL,ioos:station:DISL:DISL:1,2019-09-05T14:10:00Z,30.2513,-88.0778,9.68,3.23,335.9,-9999.0,'11111222,11111222,99999222' 
DISL,ioos:station:DISL:DISL:1,2019-09-05T15:10:00Z,30.2513,-88.0778,9.68,2.95,344.9,-9999.0,'11111222,11111222,99999222' 
DISL,ioos:station:DISL:DISL:1,2019-09-05T16:10:00Z,30.2513,-88.0778,9.68,1.75,325.3,-9999.0,'11111222,11111222,99999222' 
DISL,ioos:station:DISL:DISL:1,2019-09-05T17:10:00Z,30.2513,-88.0778,9.68,2.01,23.68,-9999.0,'11111222,11111222,99999222' 
DISL,ioos:station:DISL:DISL:1,2019-09-05T18:10:00Z,30.2513,-88.0778,9.68,4.01,294.7,-9999.0,'11111222,11111222,99999222' 
DISL,ioos:station:DISL:DISL:1,2019-09-05T19:10:00Z,30.2513,-88.0778,9.68,2.93,234.9,-9999.0,'11111222,11111222,99999222' 
DISL,ioos:station:DISL:DISL:1,2019-09-05T20:10:00Z,30.2513,-88.0778,9.68,4.42,255.8,-9999.0,'11111222,11111222,99999222' 
DISL,ioos:station:DISL:DISL:1,2019-09-05T21:10:00Z,30.2513,-88.0778,9.68,3.85,248.5,-9999.0,'11111222,11111222,99999222' 
DISL,ioos:station:DISL:DISL:1,2019-09-05T22:10:00Z,30.2513,-88.0778,9.68,4.8,260.0,-9999.0,'11111222,11111222,99999222' 
DISL,ioos:station:DISL:DISL:1,2019-09-05T23:10:00Z,30.2513,-88.0778,9.68,3.87,260.3,-9999.0,'11111222,11111222,99999222' 
DISL,ioos:station:DISL:DISL:1,2019-09-05T23:40:00Z,30.2513,-88.0778,9.68,3.71,252.9,-9999.0,'11111222,11111222,99999222' 
DISL,ioos:station:DISL:DISL:1,2019-09-06T00:40:00Z,30.2513,-88.0778,9.68,2.93,275.1,-9999.0,'11111222,11111222,99999222' 
DISL,ioos:station:DISL:DISL:1,2019-09-06T01:40:00Z,30.2513,-88.0778,9.68,4.48,302.4,-9999.0,'11111222,11111222,99999222' 
DISL,ioos:station:DISL:DISL:1,2019-09-06T02:40:00Z,30.2513,-88.0778,9.68,4.11,300.8,-9999.0,'11111222,11111222,99999222' 
DISL,ioos:station:DISL:DISL:1,2019-09-06T03:40:00Z,30.2513,-88.0778,9.68,4.64,301.3,-9999.0,'11111222,11111222,99999222' 
DISL,ioos:station:DISL:DISL:1,2019-09-06T04:40:00Z,30.2513,-88.0778,9.68,5.55,305.6,-9999.0,'11111222,11111222,99999222' 
DISL,ioos:station:DISL:DISL:1,2019-09-06T08:10:00Z,30.2513,-88.0778,9.68,6.27,338.0,-9999.0,'11111222,11111222,99999222' 
DISL,ioos:station:DISL:DISL:1,2019-09-06T09:10:00Z,30.2513,-88.0778,9.68,6.0,3.914,-9999.0,'11111222,11111222,99999222' 
DISL,ioos:station:DISL:DISL:1,2019-09-06T10:10:00Z,30.2513,-88.0778,9.68,5.81,14.83,-9999.0,'11111222,11111222,99999222' 
DISL,ioos:station:DISL:DISL:1,2019-09-06T11:10:00Z,30.2513,-88.0778,9.68,5.06,334.7,-9999.0,'11111222,11111222,99999222' 
DISL,ioos:station:DISL:DISL:1,2019-09-06T12:10:00Z,30.2513,-88.0778,9.68,5.21,343.3,-9999.0,'11111222,11111222,99999222' 
DISL,ioos:station:DISL:DISL:1,2019-09-06T13:10:00Z,30.2513,-88.0778,9.68,5.05,343.2,-9999.0,'11111222,11111222,99999222' 
DISL,ioos:station:DISL:DISL:1,2019-09-06T14:10:00Z,30.2513,-88.0778,9.68,4.77,354.6,-9999.0,'11111222,11111222,99999222' 
DISL,ioos:station:DISL:DISL:1,2019-09-06T15:10:00Z,30.2513,-88.0778,9.68,4.17,352.7,-9999.0,'11111222,11111222,99999222' 
DISL,ioos:station:DISL:DISL:1,2019-09-06T16:10:00Z,30.2513,-88.0778,9.68,2.75,5.21,-9999.0,'11111222,11111222,99999222' 
DISL,ioos:station:DISL:DISL:1,2019-09-06T17:10:00Z,30.2513,-88.0778,9.68,3.98,6.959,-9999.0,'11111222,11111222,99999222' 
DISL,ioos:station:DISL:DISL:1,2019-09-06T18:10:00Z,30.2513,-88.0778,9.68,2.32,43.03,-9999.0,'11111222,11111222,99999222' 
DISL,ioos:station:DISL:DISL:1,2019-09-06T19:10:00Z,30.2513,-88.0778,9.68,1.27,341.0,-9999.0,'11111222,11111222,99999222' 
DISL,ioos:station:DISL:DISL:1,2019-09-06T20:10:00Z,30.2513,-88.0778,9.68,0.67,28.89,-9999.0,'11111222,11111222,99999222' 
DISL,ioos:station:DISL:DISL:1,2019-09-06T21:10:00Z,30.2513,-88.0778,9.68,3.99,15.05,-9999.0,'11111222,11111222,99999222' 
DISL,ioos:station:DISL:DISL:1,2019-09-06T22:10:00Z,30.2513,-88.0778,9.68,3.64,20.75,-9999.0,'11111222,11111222,99999222' 
DISL,ioos:station:DISL:DISL:1,2019-09-06T23:10:00Z,30.2513,-88.0778,9.68,3.6,24.95,-9999.0,'11111222,11111222,99999222' 
DISL,ioos:station:DISL:DISL:1,2019-09-06T23:40:00Z,30.2513,-88.0778,9.68,3.4,13.98,-9999.0,'11111222,11111222,99999222' 
DISL,ioos:station:DISL:DISL:1,2019-09-07T01:10:00Z,30.2513,-88.0778,9.68,3.29,15.9,-9999.0,'11111222,11111222,99999222' 
DISL,ioos:station:DISL:DISL:1,2019-09-07T02:00:00Z,30.2513,-88.0778,9.68,3.2,336.8,-9999.0,'11111222,11111222,99999222' 
DISL,ioos:station:DISL:DISL:1,2019-09-07T02:40:00Z,30.2513,-88.0778,9.68,3.75,333.2,-9999.0,'11111222,11111222,99999222' 
DISL,ioos:station:DISL:DISL:1,2019-09-07T03:40:00Z,30.2513,-88.0778,9.68,4.11,330.8,-9999.0,'11111222,11111222,99999222' 
DISL,ioos:station:DISL:DISL:1,2019-09-07T04:40:00Z,30.2513,-88.0778,9.68,4.07,330.2,-9999.0,'11111222,11111222,99999222' 
DISL,ioos:station:DISL:DISL:1,2019-09-07T05:40:00Z,30.2513,-88.0778,9.68,5.0,343.5,-9999.0,'11111222,11111222,99999222' 
DISL,ioos:station:DISL:DISL:1,2019-09-07T06:40:00Z,30.2513,-88.0778,9.68,5.1,349.7,-9999.0,'11111222,11111222,99999222' 
DISL,ioos:station:DISL:DISL:1,2019-09-07T07:40:00Z,30.2513,-88.0778,9.68,3.69,347.0,-9999.0,'11111222,11111222,99999222' 
DISL,ioos:station:DISL:DISL:1,2019-09-07T09:10:00Z,30.2513,-88.0778,9.68,3.33,348.8,-9999.0,'11111222,11111222,99999222' 
DISL,ioos:station:DISL:DISL:1,2019-09-07T10:10:00Z,30.2513,-88.0778,9.68,3.48,346.5,-9999.0,'11111222,11111222,99999222' 
DISL,ioos:station:DISL:DISL:1,2019-09-07T10:40:00Z,30.2513,-88.0778,9.68,3.82,338.6,-9999.0,'11111222,11111222,99999222' 
DISL,ioos:station:DISL:DISL:1,2019-09-07T12:10:00Z,30.2513,-88.0778,9.68,2.91,330.4,-9999.0,'11111222,11111222,99999222' 
DISL,ioos:station:DISL:DISL:1,2019-09-07T13:10:00Z,30.2513,-88.0778,9.68,3.51,334.4,-9999.0,'11111222,11111222,99999222' 
DISL,ioos:station:DISL:DISL:1,2019-09-07T14:10:00Z,30.2513,-88.0778,9.68,3.59,347.8,-9999.0,'11111222,11111222,99999222' 
DISL,ioos:station:DISL:DISL:1,2019-09-07T15:10:00Z,30.2513,-88.0778,9.68,3.62,1.712,-9999.0,'11111222,11111222,99999222' 
DISL,ioos:station:DISL:DISL:1,2019-09-07T16:10:00Z,30.2513,-88.0778,9.68,2.1,3.237,-9999.0,'11111222,11111222,99999222' 
DISL,ioos:station:DISL:DISL:1,2019-09-07T17:10:00Z,30.2513,-88.0778,9.68,1.23,44.31,-9999.0,'11111222,11111222,99999222' 
DISL,ioos:station:DISL:DISL:1,2019-09-07T18:10:00Z,30.2513,-88.0778,9.68,2.42,135.6,-9999.0,'11111222,11111222,99999222' 
DISL,ioos:station:DISL:DISL:1,2019-09-07T19:10:00Z,30.2513,-88.0778,9.68,2.11,196.9,-9999.0,'11111222,11111222,99999222' 
DISL,ioos:station:DISL:DISL:1,2019-09-07T20:10:00Z,30.2513,-88.0778,9.68,3.07,215.3,-9999.0,'11111222,11111222,99999222' 
DISL,ioos:station:DISL:DISL:1,2019-09-07T21:10:00Z,30.2513,-88.0778,9.68,2.86,221.8,-9999.0,'11111222,11111222,99999222' 
DISL,ioos:station:DISL:DISL:1,2019-09-07T22:10:00Z,30.2513,-88.0778,9.68,2.87,228.7,-9999.0,'11111222,11111222,99999222' 
DISL,ioos:station:DISL:DISL:1,2019-09-07T23:10:00Z,30.2513,-88.0778,9.68,2.03,224.4,-9999.0,'11111222,11111222,99999222' 
DISL,ioos:station:DISL:DISL:1,2019-09-07T23:40:00Z,30.2513,-88.0778,9.68,1.79,221.5,-9999.0,'11111222,11111222,99999222' 
DISL,ioos:station:DISL:DISL:1,2019-09-08T01:10:00Z,30.2513,-88.0778,9.68,1.43,249.6,-9999.0,'11111222,11111222,99999222' 
DISL,ioos:station:DISL:DISL:1,2019-09-08T01:40:00Z,30.2513,-88.0778,9.68,1.47,245.8,-9999.0,'11111222,11111222,99999222' 
DISL,ioos:station:DISL:DISL:1,2019-09-08T02:40:00Z,30.2513,-88.0778,9.68,1.6,242.3,-9999.0,'11111222,11111222,99999222' 
DISL,ioos:station:DISL:DISL:1,2019-09-08T03:40:00Z,30.2513,-88.0778,9.68,1.42,252.9,-9999.0,'11111222,11111222,99999222' 
DISL,ioos:station:DISL:DISL:1,2019-09-08T04:40:00Z,30.2513,-88.0778,9.68,1.66,244.2,-9999.0,'11111222,11111222,99999222' 
DISL,ioos:station:DISL:DISL:1,2019-09-08T05:40:00Z,30.2513,-88.0778,9.68,2.54,233.0,-9999.0,'11111222,11111222,99999222' 
DISL,ioos:station:DISL:DISL:1,2019-09-08T06:40:00Z,30.2513,-88.0778,9.68,2.53,238.4,-9999.0,'11111222,11111222,99999222' 
DISL,ioos:station:DISL:DISL:1,2019-09-08T07:40:00Z,30.2513,-88.0778,9.68,2.35,232.1,-9999.0,'11111222,11111222,99999222' 
DISL,ioos:station:DISL:DISL:1,2019-09-08T08:40:00Z,30.2513,-88.0778,9.68,2.02,242.5,-9999.0,'11111222,11111222,99999222' 
DISL,ioos:station:DISL:DISL:1,2019-09-08T09:40:00Z,30.2513,-88.0778,9.68,1.88,259.8,-9999.0,'11111222,11111222,99999222' 
DISL,ioos:station:DISL:DISL:1,2019-09-08T10:40:00Z,30.2513,-88.0778,9.68,1.66,259.0,-9999.0,'11111222,11111222,99999222' 
DISL,ioos:station:DISL:DISL:1,2019-09-08T11:40:00Z,30.2513,-88.0778,9.68,2.32,333.1,-9999.0,'11111222,11111222,99999222' 
DISL,ioos:station:DISL:DISL:1,2019-09-08T12:40:00Z,30.2513,-88.0778,9.68,1.7,328.4,-9999.0,'11111222,11111222,99999222' 
DISL,ioos:station:DISL:DISL:1,2019-09-08T13:40:00Z,30.2513,-88.0778,9.68,1.28,342.1,-9999.0,'11111222,11111222,99999222' 
DISL,ioos:station:DISL:DISL:1,2019-09-08T14:40:00Z,30.2513,-88.0778,9.68,1.72,6.026,-9999.0,'11111222,11111222,99999222' 
DISL,ioos:station:DISL:DISL:1,2019-09-08T15:40:00Z,30.2513,-88.0778,9.68,1.52,37.55,-9999.0,'11111222,11111222,99999222' 
DISL,ioos:station:DISL:DISL:1,2019-09-08T17:10:00Z,30.2513,-88.0778,9.68,1.55,34.53,-9999.0,'11111222,11111222,99999222' 
DISL,ioos:station:DISL:DISL:1,2019-09-08T18:10:00Z,30.2513,-88.0778,9.68,1.4,46.6,-9999.0,'11111222,11111222,99999222' 
DISL,ioos:station:DISL:DISL:1,2019-09-08T19:10:00Z,30.2513,-88.0778,9.68,3.2,164.5,-9999.0,'11111222,11111222,99999222' 
DISL,ioos:station:DISL:DISL:1,2019-09-08T20:10:00Z,30.2513,-88.0778,9.68,2.98,172.7,-9999.0,'11111222,11111222,99999222' 
DISL,ioos:station:DISL:DISL:1,2019-09-08T21:10:00Z,30.2513,-88.0778,9.68,3.13,179.9,-9999.0,'11111222,11111222,99999222' 
DISL,ioos:station:DISL:DISL:1,2019-09-08T22:10:00Z,30.2513,-88.0778,9.68,2.94,196.3,-9999.0,'11111222,11111222,99999222' 
DISL,ioos:station:DISL:DISL:1,2019-09-08T23:10:00Z,30.2513,-88.0778,9.68,1.94,198.2,-9999.0,'11111222,11111222,99999222' 
DISL,ioos:station:DISL:DISL:1,2019-09-09T00:10:00Z,30.2513,-88.0778,9.68,2.3,192.7,-9999.0,'11111222,11111222,99999222' 
DISL,ioos:station:DISL:DISL:1,2019-09-09T01:10:00Z,30.2513,-88.0778,9.68,2.02,190.4,-9999.0,'11111222,11111222,99999222' 
DISL,ioos:station:DISL:DISL:1,2019-09-09T02:10:00Z,30.2513,-88.0778,9.68,2.01,197.2,-9999.0,'11111222,11111222,99999222' 
DISL,ioos:station:DISL:DISL:1,2019-09-09T03:10:00Z,30.2513,-88.0778,9.68,1.84,201.8,-9999.0,'11111222,11111222,99999222' 
DISL,ioos:station:DISL:DISL:1,2019-09-09T04:10:00Z,30.2513,-88.0778,9.68,1.49,211.6,-9999.0,'11111222,11111222,99999222' 
DISL,ioos:station:DISL:DISL:1,2019-09-09T05:10:00Z,30.2513,-88.0778,9.68,1.04,230.4,-9999.0,'11111222,11111222,99999222' 
DISL,ioos:station:DISL:DISL:1,2019-09-09T06:10:00Z,30.2513,-88.0778,9.68,1.38,186.4,-9999.0,'11111222,11111222,99999222' 
DISL,ioos:station:DISL:DISL:1,2019-09-09T07:10:00Z,30.2513,-88.0778,9.68,2.12,192.2,-9999.0,'11111222,11111222,99999222' 